Simultaneous Nadir Overpasses (SNOs) Predictions

Prediction of SNOs between GOES-16 and AQUA Satellite Orbit:

Table of predicted SNOs for the next 14.0 days since TLE Epoch: 3/18/2022
Index Date Time (GOES-16) GOES-16 Lat,Lon AQUA Lat,Lon Distance(km) Time Diff (sec)
1 03/20/2022 18:28:08 0.06, -75.23 0.61, -72.51 308.55 80
2 03/21/2022 06:49:22 -0.06, -75.23 0.46, -77.66 276.61 80
3 03/23/2022 06:34:23 -0.06, -75.23 -0.16, -74.66 64.48 80
4 03/25/2022 06:22:04 -0.05, -75.24 -0.78, -71.67 405.76 80
5 03/25/2022 18:43:26 0.05, -75.24 -0.28, -76.86 182.97 80
6 03/27/2022 18:33:47 0.04, -75.26 0.37, -73.86 159.32 80
7 03/28/2022 06:55:00 -0.03, -75.26 0.75, -79.00 425.01 80
8 03/30/2022 06:42:40 -0.03, -75.29 0.15, -76.00 81.60 80
9 04/01/2022 06:27:41 -0.03, -75.32 -0.52, -73.01 262.84 80
10 04/01/2022 18:49:03 0.03, -75.33 -0.58, -78.19 325.36 80
